カタログに戻る

ARIANE 44L+ DEB

運用中GTO
NORAD 23237·DEBRIS·🇫🇷 France

打ち上げ Apr 15, 1992 から Guiana Space Centre

Loading…

TLE

古いSource: Space-Track

元期: Sep 14, 2026, 05:07 UTC

1 23237U 92021G   26257.21363069  .00000113  00000-0  12310-1 0  9996
2 23237   3.4769 254.9291 7043608 353.3537  86.6565  2.25017942267752

AllMySatでARIANE 44L+ DEBをリアルタイム追跡

Download on the App Store